Find Starlink 30229

NORAD ID: 57461 Int'l Des: 2023-107 Owner: SPXS Country: US Constellation: starlink operational
LEOCIRCULAR

現在のビュー

3D地球を読み込み中...

About Starlink 30229

Starlink 30229 (NORAD 57461) is a starlink constellation satellite (v2 mini) launched Jul 28, 2023 by SPXS of US. It operates in LEO, CIRCULAR orbit with a mass of 730.00 kg.

次回通過

Passes for default location (London). Set your location on the main map for personalized predictions.

高度履歴

Loading altitude history...

軌道要素

1 57461U 23107E 26237.34330701 -.00000135 00000-0 46056-5 0 9993
2 57461 42.9989 111.0442 0000622 302.4171 57.6621 15.27573918170853
Epoch: Aug 25, 2026 • Age: 19 hours

現在のステータス

高度 487.2 km
遠地点 / 近地点 N/A
速度 7.62 km/s
衛星直下点 -20.38°S, 64.86°E
打ち上げ日 Jul 28, 2023
運用期間 3 years
タイプ internet

技術仕様

分類 Payload
質量 730.00 kg
乾燥質量 700.00 kg
総質量 730.00 kg
長さ 0.30 m
直径 4.10 m
スパン 29.00 m
形状 Box + pan
製造者 SPXS
バスタイプ Starlink V2M
フェーズステータス In Orbit
所有者/国 SPXS/US

Most Searched